This is the latest recevied weather packets stored in our database for station/object EA4URC-10. If no packets are shown the sender has not sent any weather packets the latest 10 day(s).
| Time | Temp. | Humidity | Pressure | Rain* | Wind** | Luminosity | Snow |
|---|---|---|---|---|---|---|---|
| 1788572407 | 24.44° C | 34% | 1040.3 hPa | - | - | - | - |
| 1788570634 | 25.56° C | 23% | 1040.2 hPa | - | - | - | - |
| 1788568805 | 25° C | 26% | 1040.4 hPa | - | - | - | - |
| 1788567005 | 25° C | 25% | 1040.6 hPa | - | - | - | - |
| 1788565204 | 25° C | 25% | 1040.6 hPa | - | - | - | - |
| 1788563404 | 25° C | 27% | 1040.7 hPa | - | - | - | - |
| 1788561603 | 25° C | 29% | 1040.7 hPa | - | - | - | - |
| 1788559803 | 25° C | 30% | 1040.6 hPa | - | - | - | - |
| 1788558002 | 25.56° C | 26% | 1040.6 hPa | - | - | - | - |
| 1788556201 | 26.11° C | 21% | 1040.6 hPa | - | - | - | - |
| 1788554406 | 26.11° C | 20% | 1040.5 hPa | - | - | - | - |
| 1788552606 | 26.11° C | 20% | 1040.3 hPa | - | - | - | - |
| 1788550805 | 27.22° C | 19% | 1040 hPa | - | - | - | - |
| 1788549005 | 27.22° C | 18% | 1039.7 hPa | - | - | - | - |
| 1788547204 | 27.78° C | 17% | 1039.5 hPa | - | - | - | - |
| 1788545404 | 28.89° C | 16% | 1039.4 hPa | - | - | - | - |
| 1788543603 | 30° C | 15% | 1039.3 hPa | - | - | - | - |
| 1788541804 | 31.11° C | 14% | 1039.2 hPa | - | - | - | - |
| 1788540003 | 32.78° C | 13% | 1039.2 hPa | - | - | - | - |
| 1788538202 | 33.33° C | 12% | 1039.4 hPa | - | - | - | - |
| 1788536401 | 35.56° C | 11% | 1039.3 hPa | - | - | - | - |
| 1788534601 | 37.22° C | 10% | 1039.6 hPa | - | - | - | - |
| 1788532808 | 38.33° C | 10% | 1039.9 hPa | - | - | - | - |
| 1788531006 | 38.33° C | 9% | 1040.2 hPa | - | - | - | - |
| 1788529205 | 38.89° C | 9% | 1040.4 hPa | - | - | - | - |
* Rain since midnight (hover to see other rain measurements)
** Current wind speed in m/s (hover to see current wind gust speed)